"Time","Value","Approval","myLocation"
"2023-04-20 00:00",16.2278273894437,"Approved","OW479"
"2023-04-20 01:00",16.2248307180219,"Approved","OW479"
"2023-04-20 02:00",16.2238340466001,"Approved","OW479"
"2023-04-20 03:00",16.2218373751783,"Approved","OW479"
"2023-04-20 04:00",16.2228407037565,"Approved","OW479"
"2023-04-20 05:00",16.2238440323348,"Approved","OW479"
"2023-04-20 06:00",16.227847360913,"Approved","OW479"
"2023-04-20 07:00",16.2308506894912,"Approved","OW479"
"2023-04-20 08:00",16.2348540180694,"Approved","OW479"
"2023-04-20 09:00",16.2358573466476,"Approved","OW479"
"2023-04-20 10:00",16.2368606752259,"Approved","OW479"
"2023-04-20 11:00",16.2368640038041,"Approved","OW479"
"2023-04-20 12:00",16.2348673323823,"Approved","OW479"
"2023-04-20 13:00",16.2328706609605,"Approved","OW479"
"2023-04-20 14:00",16.2308739895388,"Approved","OW479"
"2023-04-20 15:00",16.229877318117,"Approved","OW479"
"2023-04-20 16:00",16.2298806466952,"Approved","OW479"
"2023-04-20 17:00",16.2288839752734,"Approved","OW479"
"2023-04-20 18:00",16.2298873038516,"Approved","OW479"
"2023-04-20 19:00",16.2298906324299,"Approved","OW479"
"2023-04-20 20:00",16.2298939610081,"Approved","OW479"
"2023-04-20 21:00",16.2288972895863,"Approved","OW479"
"2023-04-20 22:00",16.2279006181645,"Approved","OW479"
"2023-04-20 23:00",16.2219039467427,"Approved","OW479"
"2023-04-21 00:00",16.216907275321,"Approved","OW479"
"2023-04-21 01:00",16.2099106038992,"Approved","OW479"
"2023-04-21 02:00",16.2039139324774,"Approved","OW479"
"2023-04-21 03:00",16.1979172610556,"Approved","OW479"
"2023-04-21 04:00",16.1969205896339,"Approved","OW479"
"2023-04-21 05:00",16.1969239182121,"Approved","OW479"
"2023-04-21 06:00",16.1979272467903,"Approved","OW479"
"2023-04-21 07:00",16.1989305753685,"Approved","OW479"
"2023-04-21 08:00",16.2019339039467,"Approved","OW479"
"2023-04-21 09:00",16.203937232525,"Approved","OW479"
"2023-04-21 10:00",16.2059405611032,"Approved","OW479"
"2023-04-21 11:00",16.2069438896814,"Approved","OW479"
"2023-04-21 12:00",16.2059472182596,"Approved","OW479"
"2023-04-21 13:00",16.2039505468378,"Approved","OW479"
"2023-04-21 14:00",16.2029538754161,"Approved","OW479"
"2023-04-21 15:00",16.2009572039943,"Approved","OW479"
"2023-04-21 16:00",16.2009605325725,"Approved","OW479"
"2023-04-21 17:00",16.2029638611507,"Approved","OW479"
"2023-04-21 18:00",16.203967189729,"Approved","OW479"
"2023-04-21 19:00",16.2069705183072,"Approved","OW479"
"2023-04-21 20:00",16.2099738468854,"Approved","OW479"
"2023-04-21 21:00",16.2109771754636,"Approved","OW479"
"2023-04-21 22:00",16.2109805040418,"Approved","OW479"
"2023-04-21 23:00",16.2089838326201,"Approved","OW479"
"2023-04-22 00:00",16.2069871611983,"Approved","OW479"
"2023-04-22 01:00",16.2049904897765,"Approved","OW479"
"2023-04-22 02:00",16.2029938183547,"Approved","OW479"
"2023-04-22 03:00",16.197997146933,"Approved","OW479"
"2023-04-22 04:00",16.1950004755112,"Approved","OW479"
"2023-04-22 05:00",16.1940038040894,"Approved","OW479"
"2023-04-22 06:00",16.1920071326676,"Approved","OW479"
"2023-04-22 07:00",16.1910104612458,"Approved","OW479"
"2023-04-22 08:00",16.1920137898241,"Approved","OW479"
"2023-04-22 09:00",16.1920171184023,"Approved","OW479"
"2023-04-22 10:00",16.1910204469805,"Approved","OW479"
"2023-04-22 11:00",16.1900237755587,"Approved","OW479"
"2023-04-22 12:00",16.1880271041369,"Approved","OW479"
"2023-04-22 13:00",16.1840304327152,"Approved","OW479"
"2023-04-22 14:00",16.1820337612934,"Approved","OW479"
"2023-04-22 15:00",16.1810370898716,"Approved","OW479"
"2023-04-22 16:00",16.1790404184498,"Approved","OW479"
"2023-04-22 17:00",16.1800437470281,"Approved","OW479"
"2023-04-22 18:00",16.1810470756063,"Approved","OW479"
"2023-04-22 19:00",16.1820504041845,"Approved","OW479"
"2023-04-22 20:00",16.1830537327627,"Approved","OW479"
"2023-04-22 21:00",16.1840570613409,"Approved","OW479"
"2023-04-22 22:00",16.1830603899192,"Approved","OW479"
"2023-04-22 23:00",16.1810637184974,"Approved","OW479"
"2023-04-23 00:00",16.1770670470756,"Approved","OW479"
"2023-04-23 01:00",16.1740703756538,"Approved","OW479"
"2023-04-23 02:00",16.169073704232,"Approved","OW479"
"2023-04-23 03:00",16.1640770328103,"Approved","OW479"
"2023-04-23 04:00",16.1590803613885,"Approved","OW479"
"2023-04-23 05:00",16.1540836899667,"Approved","OW479"
"2023-04-23 06:00",16.1500870185449,"Approved","OW479"
"2023-04-23 07:00",16.1450903471232,"Approved","OW479"
"2023-04-23 08:00",16.1420936757014,"Approved","OW479"
"2023-04-23 09:00",16.1410970042796,"Approved","OW479"
"2023-04-23 10:00",16.1391003328578,"Approved","OW479"
"2023-04-23 11:00",16.136103661436,"Approved","OW479"
"2023-04-23 12:00",16.1331069900143,"Approved","OW479"
"2023-04-23 13:00",16.1311103185925,"Approved","OW479"
"2023-04-23 14:00",16.1301136471707,"Approved","OW479"
"2023-04-23 15:00",16.1281169757489,"Approved","OW479"
"2023-04-23 16:00",16.1271203043272,"Approved","OW479"
"2023-04-23 17:00",16.1281236329054,"Approved","OW479"
"2023-04-23 18:00",16.1301269614836,"Approved","OW479"
"2023-04-23 19:00",16.1321302900618,"Approved","OW479"
"2023-04-23 20:00",16.13613361864,"Approved","OW479"
"2023-04-23 21:00",16.1391369472183,"Approved","OW479"
"2023-04-23 22:00",16.1421402757965,"Approved","OW479"
"2023-04-23 23:00",16.1431436043747,"Approved","OW479"
"2023-04-24 00:00",16.1431469329529,"Approved","OW479"
"2023-04-24 01:00",16.1421502615311,"Approved","OW479"
"2023-04-24 02:00",16.1401535901094,"Approved","OW479"
"2023-04-24 03:00",16.1361569186876,"Approved","OW479"
"2023-04-24 04:00",16.1341602472658,"Approved","OW479"
"2023-04-24 05:00",16.131163575844,"Approved","OW479"
"2023-04-24 06:00",16.1301669044223,"Approved","OW479"
"2023-04-24 07:00",16.1271702330005,"Approved","OW479"
"2023-04-24 08:00",16.1271735615787,"Approved","OW479"
"2023-04-24 09:00",16.1271768901569,"Approved","OW479"
"2023-04-24 10:00",16.1291802187351,"Approved","OW479"
"2023-04-24 11:00",16.1301835473134,"Approved","OW479"
"2023-04-24 12:00",16.1311868758916,"Approved","OW479"
"2023-04-24 13:00",16.1331902044698,"Approved","OW479"
"2023-04-24 14:00",16.134193533048,"Approved","OW479"
"2023-04-24 15:00",16.1361968616262,"Approved","OW479"
"2023-04-24 16:00",16.1392001902045,"Approved","OW479"
"2023-04-24 17:00",16.1432035187827,"Approved","OW479"
"2023-04-24 18:00",16.1452068473609,"Approved","OW479"
"2023-04-24 19:00",16.1502101759391,"Approved","OW479"
"2023-04-24 20:00",16.1522135045174,"Approved","OW479"
"2023-04-24 21:00",16.1552168330956,"Approved","OW479"
"2023-04-24 22:00",16.1592201616738,"Approved","OW479"
"2023-04-24 23:00",16.162223490252,"Approved","OW479"
"2023-04-25 00:00",16.1632268188302,"Approved","OW479"
"2023-04-25 01:00",16.1652301474085,"Approved","OW479"
"2023-04-25 02:00",16.1652334759867,"Approved","OW479"
"2023-04-25 03:00",16.1652368045649,"Approved","OW479"
"2023-04-25 04:00",16.1642401331431,"Approved","OW479"
"2023-04-25 05:00",16.1632434617214,"Approved","OW479"
"2023-04-25 06:00",16.1612467902996,"Approved","OW479"
"2023-04-25 07:00",16.1612501188778,"Approved","OW479"
"2023-04-25 08:00",16.160253447456,"Approved","OW479"
"2023-04-25 09:00",16.1602567760342,"Approved","OW479"
"2023-04-25 10:00",16.1602601046125,"Approved","OW479"
"2023-04-25 11:00",16.1602634331907,"Approved","OW479"
"2023-04-25 12:00",16.1612667617689,"Approved","OW479"
"2023-04-25 13:00",16.1622700903471,"Approved","OW479"
"2023-04-25 14:00",16.1622734189253,"Approved","OW479"
"2023-04-25 15:00",16.1622767475036,"Approved","OW479"
"2023-04-25 16:00",16.1632800760818,"Approved","OW479"
"2023-04-25 17:00",16.16428340466,"Approved","OW479"
"2023-04-25 18:00",16.1642867332382,"Approved","OW479"
"2023-04-25 19:00",16.1652900618165,"Approved","OW479"
"2023-04-25 20:00",16.1682933903947,"Approved","OW479"
"2023-04-25 21:00",16.1702967189729,"Approved","OW479"
"2023-04-25 22:00",16.1733000475511,"Approved","OW479"
"2023-04-25 23:00",16.1743033761293,"Approved","OW479"
"2023-04-26 00:00",16.1763067047076,"Approved","OW479"
"2023-04-26 01:00",16.1763100332858,"Approved","OW479"
"2023-04-26 02:00",16.176313361864,"Approved","OW479"
"2023-04-26 03:00",16.1753166904422,"Approved","OW479"
"2023-04-26 04:00",16.1763200190204,"Approved","OW479"
"2023-04-26 05:00",16.1763233475987,"Approved","OW479"
"2023-04-26 06:00",16.1733266761769,"Approved","OW479"
"2023-04-26 07:00",16.1713300047551,"Approved","OW479"
"2023-04-26 08:00",16.1703333333333,"Approved","OW479"
"2023-04-26 09:00",16.1683366619116,"Approved","OW479"
"2023-04-26 10:00",16.1663399904898,"Approved","OW479"
"2023-04-26 11:00",16.165343319068,"Approved","OW479"
"2023-04-26 12:00",16.1653466476462,"Approved","OW479"
"2023-04-26 13:00",16.1653499762244,"Approved","OW479"
"2023-04-26 14:00",16.1653533048027,"Approved","OW479"
"2023-04-26 15:00",16.1653566333809,"Approved","OW479"
"2023-04-26 16:00",16.1653599619591,"Approved","OW479"
"2023-04-26 17:00",16.1653632905373,"Approved","OW479"
"2023-04-26 18:00",16.1663666191155,"Approved","OW479"
"2023-04-26 19:00",16.1673699476938,"Approved","OW479"
"2023-04-26 20:00",16.168373276272,"Approved","OW479"
"2023-04-26 21:00",16.1683766048502,"Approved","OW479"
"2023-04-26 22:00",16.1693799334284,"Approved","OW479"
"2023-04-26 23:00",16.1703832620067,"Approved","OW479"
"2023-04-27 00:00",16.1713865905849,"Approved","OW479"
"2023-04-27 01:00",16.1713899191631,"Approved","OW479"
"2023-04-27 02:00",16.1723932477413,"Approved","OW479"
"2023-04-27 03:00",16.1733965763195,"Approved","OW479"
"2023-04-27 04:00",16.1733999048978,"Approved","OW479"
"2023-04-27 05:00",16.172403233476,"Approved","OW479"
"2023-04-27 06:00",16.1714065620542,"Approved","OW479"
"2023-04-27 07:00",16.1704098906324,"Approved","OW479"
"2023-04-27 08:00",16.1684132192107,"Approved","OW479"
"2023-04-27 09:00",16.1664165477889,"Approved","OW479"
"2023-04-27 10:00",16.1664198763671,"Approved","OW479"
"2023-04-27 11:00",16.1654232049453,"Approved","OW479"
"2023-04-27 12:00",16.1664265335235,"Approved","OW479"
"2023-04-27 13:00",16.1664298621018,"Approved","OW479"
"2023-04-27 14:00",16.16843319068,"Approved","OW479"
"2023-04-27 15:00",16.1694365192582,"Approved","OW479"
"2023-04-27 16:00",16.1714398478364,"Approved","OW479"
"2023-04-27 17:00",16.1724431764146,"Approved","OW479"
"2023-04-27 18:00",16.1734465049929,"Approved","OW479"
"2023-04-27 19:00",16.1734498335711,"Approved","OW479"
"2023-04-27 20:00",16.1724531621493,"Approved","OW479"
"2023-04-27 21:00",16.1734564907275,"Approved","OW479"
"2023-04-27 22:00",16.1734598193058,"Approved","OW479"
"2023-04-27 23:00",16.174463147884,"Approved","OW479"
"2023-04-28 00:00",16.1754664764622,"Approved","OW479"
"2023-04-28 01:00",16.1764698050404,"Approved","OW479"
"2023-04-28 02:00",16.1764731336186,"Approved","OW479"
"2023-04-28 03:00",16.1764764621969,"Approved","OW479"
"2023-04-28 04:00",16.1774797907751,"Approved","OW479"
"2023-04-28 05:00",16.1774831193533,"Approved","OW479"
"2023-04-28 06:00",16.1764864479315,"Approved","OW479"
"2023-04-28 07:00",16.1754897765097,"Approved","OW479"
"2023-04-28 08:00",16.173493105088,"Approved","OW479"
"2023-04-28 09:00",16.1724964336662,"Approved","OW479"
"2023-04-28 10:00",16.1714997622444,"Approved","OW479"
"2023-04-28 11:00",16.1705030908226,"Approved","OW479"
"2023-04-28 12:00",16.1695064194009,"Approved","OW479"
"2023-04-28 13:00",16.1705097479791,"Approved","OW479"
"2023-04-28 14:00",16.1715130765573,"Approved","OW479"
"2023-04-28 15:00",16.1735164051355,"Approved","OW479"
"2023-04-28 16:00",16.1735197337137,"Approved","OW479"
"2023-04-28 17:00",16.174523062292,"Approved","OW479"
"2023-04-28 18:00",16.1735263908702,"Approved","OW479"
"2023-04-28 19:00",16.1725297194484,"Approved","OW479"
"2023-04-28 20:00",16.1725330480266,"Approved","OW479"
"2023-04-28 21:00",16.1715363766049,"Approved","OW479"
"2023-04-28 22:00",16.1695397051831,"Approved","OW479"
"2023-04-28 23:00",16.1695430337613,"Approved","OW479"
"2023-04-29 00:00",16.1705463623395,"Approved","OW479"
"2023-04-29 01:00",16.1695496909177,"Approved","OW479"
"2023-04-29 02:00",16.169553019496,"Approved","OW479"
"2023-04-29 03:00",16.1715563480742,"Approved","OW479"
"2023-04-29 04:00",16.1735596766524,"Approved","OW479"
"2023-04-29 05:00",16.1745630052306,"Approved","OW479"
"2023-04-29 06:00",16.1755663338088,"Approved","OW479"
"2023-04-29 07:00",16.1755696623871,"Approved","OW479"
"2023-04-29 08:00",16.1755729909653,"Approved","OW479"
"2023-04-29 09:00",16.1745763195435,"Approved","OW479"
"2023-04-29 10:00",16.1735796481217,"Approved","OW479"
"2023-04-29 11:00",16.1725829766999,"Approved","OW479"
"2023-04-29 12:00",16.1725863052782,"Approved","OW479"
"2023-04-29 13:00",16.1735896338564,"Approved","OW479"
"2023-04-29 14:00",16.1755929624346,"Approved","OW479"
"2023-04-29 15:00",16.1795962910128,"Approved","OW479"
"2023-04-29 16:00",16.1805996195911,"Approved","OW479"
"2023-04-29 17:00",16.1826029481693,"Approved","OW479"
"2023-04-29 18:00",16.1846062767475,"Approved","OW479"
"2023-04-29 19:00",16.1866096053257,"Approved","OW479"
"2023-04-29 20:00",16.1856129339039,"Approved","OW479"
"2023-04-29 21:00",16.1856162624822,"Approved","OW479"
"2023-04-29 22:00",16.1856195910604,"Approved","OW479"
"2023-04-29 23:00",16.1856229196386,"Approved","OW479"
"2023-04-30 00:00",16.1846262482168,"Approved","OW479"
"2023-04-30 01:00",16.1856295767951,"Approved","OW479"
"2023-04-30 02:00",16.1866329053733,"Approved","OW479"
"2023-04-30 03:00",16.1876362339515,"Approved","OW479"
"2023-04-30 04:00",16.1896395625297,"Approved","OW479"
"2023-04-30 05:00",16.1916428911079,"Approved","OW479"
"2023-04-30 06:00",16.1926462196862,"Approved","OW479"
"2023-04-30 07:00",16.1926495482644,"Approved","OW479"
"2023-04-30 08:00",16.1906528768426,"Approved","OW479"
"2023-04-30 09:00",16.1896562054208,"Approved","OW479"
"2023-04-30 10:00",16.1886595339991,"Approved","OW479"
"2023-04-30 11:00",16.1876628625773,"Approved","OW479"
"2023-04-30 12:00",16.1876661911555,"Approved","OW479"
"2023-04-30 13:00",16.1876695197337,"Approved","OW479"
"2023-04-30 14:00",16.1886728483119,"Approved","OW479"
"2023-04-30 15:00",16.1916761768902,"Approved","OW479"
"2023-04-30 16:00",16.1936795054684,"Approved","OW479"
"2023-04-30 17:00",16.1966828340466,"Approved","OW479"
"2023-04-30 18:00",16.1976861626248,"Approved","OW479"
"2023-04-30 19:00",16.199689491203,"Approved","OW479"
"2023-04-30 20:00",16.1996928197813,"Approved","OW479"
"2023-04-30 21:00",16.1996961483595,"Approved","OW479"
"2023-04-30 22:00",16.1986994769377,"Approved","OW479"
"2023-04-30 23:00",16.1987028055159,"Approved","OW479"
"2023-05-01 00:00",16.1977061340942,"Approved","OW479"
"2023-05-01 01:00",16.1997094626724,"Approved","OW479"
"2023-05-01 02:00",16.2007127912506,"Approved","OW479"
"2023-05-01 03:00",16.2017161198288,"Approved","OW479"
"2023-05-01 04:00",16.204719448407,"Approved","OW479"
"2023-05-01 05:00",16.2067227769853,"Approved","OW479"
"2023-05-01 06:00",16.2077261055635,"Approved","OW479"
"2023-05-01 07:00",16.2087294341417,"Approved","OW479"
"2023-05-01 08:00",16.2087327627199,"Approved","OW479"
"2023-05-01 09:00",16.2077360912981,"Approved","OW479"
"2023-05-01 10:00",16.2067394198764,"Approved","OW479"
"2023-05-01 11:00",16.2047427484546,"Approved","OW479"
"2023-05-01 12:00",16.2037460770328,"Approved","OW479"
"2023-05-01 13:00",16.202749405611,"Approved","OW479"
"2023-05-01 14:00",16.2037527341893,"Approved","OW479"
"2023-05-01 15:00",16.2057560627675,"Approved","OW479"
"2023-05-01 16:00",16.2067593913457,"Approved","OW479"
"2023-05-01 17:00",16.2097627199239,"Approved","OW479"
"2023-05-01 18:00",16.2127660485021,"Approved","OW479"
"2023-05-01 19:00",16.2147693770804,"Approved","OW479"
"2023-05-01 20:00",16.2157727056586,"Approved","OW479"
"2023-05-01 21:00",16.2157760342368,"Approved","OW479"
"2023-05-01 22:00",16.215779362815,"Approved","OW479"
"2023-05-01 23:00",16.2157826913933,"Approved","OW479"
"2023-05-02 00:00",16.2157860199715,"Approved","OW479"
"2023-05-02 01:00",16.2167893485497,"Approved","OW479"
"2023-05-02 02:00",16.2177926771279,"Approved","OW479"
"2023-05-02 03:00",16.2197960057061,"Approved","OW479"
"2023-05-02 04:00",16.2217993342844,"Approved","OW479"
"2023-05-02 05:00",16.2238026628626,"Approved","OW479"
"2023-05-02 06:00",16.2258059914408,"Approved","OW479"
"2023-05-02 07:00",16.227809320019,"Approved","OW479"
"2023-05-02 08:00",16.2298126485972,"Approved","OW479"
"2023-05-02 09:00",16.2298159771755,"Approved","OW479"
"2023-05-02 10:00",16.2288193057537,"Approved","OW479"
"2023-05-02 11:00",16.2298226343319,"Approved","OW479"
"2023-05-02 12:00",16.2298259629101,"Approved","OW479"
"2023-05-02 13:00",16.2278292914883,"Approved","OW479"
"2023-05-02 14:00",16.2268326200666,"Approved","OW479"
"2023-05-02 15:00",16.2298359486448,"Approved","OW479"
"2023-05-02 16:00",16.232839277223,"Approved","OW479"
"2023-05-02 17:00",16.2348426058012,"Approved","OW479"
"2023-05-02 18:00",16.2358459343795,"Approved","OW479"
"2023-05-02 19:00",16.2368492629577,"Approved","OW479"
"2023-05-02 20:00",16.2378525915359,"Approved","OW479"
"2023-05-02 21:00",16.2368559201141,"Approved","OW479"
"2023-05-02 22:00",16.2348592486923,"Approved","OW479"
"2023-05-02 23:00",16.2318625772706,"Approved","OW479"
"2023-05-03 00:00",16.2318659058488,"Approved","OW479"
"2023-05-03 01:00",16.231869234427,"Approved","OW479"
"2023-05-03 02:00",16.2338725630052,"Approved","OW479"
"2023-05-03 03:00",16.2358758915835,"Approved","OW479"
"2023-05-03 04:00",16.2398792201617,"Approved","OW479"
"2023-05-03 05:00",16.2438825487399,"Approved","OW479"
"2023-05-03 06:00",16.2498858773181,"Approved","OW479"
"2023-05-03 07:00",16.2528892058963,"Approved","OW479"
"2023-05-03 08:00",16.2558925344746,"Approved","OW479"
"2023-05-03 09:00",16.2578958630528,"Approved","OW479"
"2023-05-03 10:00",16.257899191631,"Approved","OW479"
"2023-05-03 11:00",16.2579025202092,"Approved","OW479"
"2023-05-03 12:00",16.2579058487874,"Approved","OW479"
"2023-05-03 13:00",16.2579091773657,"Approved","OW479"
"2023-05-03 14:00",16.2579125059439,"Approved","OW479"
"2023-05-03 15:00",16.2599158345221,"Approved","OW479"
"2023-05-03 16:00",16.2609191631003,"Approved","OW479"
"2023-05-03 17:00",16.2639224916786,"Approved","OW479"
"2023-05-03 18:00",16.2659258202568,"Approved","OW479"
"2023-05-03 19:00",16.266929148835,"Approved","OW479"
"2023-05-03 20:00",16.2679324774132,"Approved","OW479"
"2023-05-03 21:00",16.2669358059914,"Approved","OW479"
"2023-05-03 22:00",16.2649391345697,"Approved","OW479"
"2023-05-03 23:00",16.2619424631479,"Approved","OW479"
"2023-05-04 00:00",16.2589457917261,"Approved","OW479"
"2023-05-04 01:00",16.2559491203043,"Approved","OW479"
"2023-05-04 02:00",16.2549524488825,"Approved","OW479"
"2023-05-04 03:00",16.2549557774608,"Approved","OW479"
"2023-05-04 04:00",16.256959106039,"Approved","OW479"
"2023-05-04 05:00",16.2609624346172,"Approved","OW479"
"2023-05-04 06:00",16.2649657631954,"Approved","OW479"
"2023-05-04 07:00",16.2679690917737,"Approved","OW479"
"2023-05-04 08:00",16.2719724203519,"Approved","OW479"
"2023-05-04 09:00",16.2739757489301,"Approved","OW479"
"2023-05-04 10:00",16.2739790775083,"Approved","OW479"
"2023-05-04 11:00",16.2729824060865,"Approved","OW479"
"2023-05-04 12:00",16.2729857346648,"Approved","OW479"
"2023-05-04 13:00",16.270989063243,"Approved","OW479"
"2023-05-04 14:00",16.2689923918212,"Approved","OW479"
"2023-05-04 15:00",16.2679957203994,"Approved","OW479"
"2023-05-04 16:00",16.2709990489777,"Approved","OW479"
"2023-05-04 17:00",16.2730023775559,"Approved","OW479"
"2023-05-04 18:00",16.2770057061341,"Approved","OW479"
"2023-05-04 19:00",16.2800090347123,"Approved","OW479"
"2023-05-04 20:00",16.2800123632905,"Approved","OW479"
"2023-05-04 21:00",16.2780156918688,"Approved","OW479"
"2023-05-04 22:00",16.276019020447,"Approved","OW479"
"2023-05-04 23:00",16.2740223490252,"Approved","OW479"
"2023-05-05 00:00",16.2730256776034,"Approved","OW479"
"2023-05-05 01:00",16.2710290061816,"Approved","OW479"
"2023-05-05 02:00",16.2710323347599,"Approved","OW479"
"2023-05-05 03:00",16.2700356633381,"Approved","OW479"
"2023-05-05 04:00",16.2720389919163,"Approved","OW479"
"2023-05-05 05:00",16.2740423204945,"Approved","OW479"
"2023-05-05 06:00",16.2760456490728,"Approved","OW479"
"2023-05-05 07:00",16.279048977651,"Approved","OW479"
"2023-05-05 08:00",16.2790523062292,"Approved","OW479"
"2023-05-05 09:00",16.2800556348074,"Approved","OW479"
"2023-05-05 10:00",16.2780589633856,"Approved","OW479"
"2023-05-05 11:00",16.2770622919639,"Approved","OW479"
"2023-05-05 12:00",16.2740656205421,"Approved","OW479"
"2023-05-05 13:00",16.2710689491203,"Approved","OW479"
"2023-05-05 14:00",16.2690722776985,"Approved","OW479"
"2023-05-05 15:00",16.2720756062767,"Approved","OW479"
"2023-05-05 16:00",16.274078934855,"Approved","OW479"
"2023-05-05 17:00",16.2770822634332,"Approved","OW479"
"2023-05-05 18:00",16.2800855920114,"Approved","OW479"
"2023-05-05 19:00",16.2840889205896,"Approved","OW479"
"2023-05-05 20:00",16.2870922491679,"Approved","OW479"
"2023-05-05 21:00",16.2890955777461,"Approved","OW479"
"2023-05-05 22:00",16.2890989063243,"Approved","OW479"
"2023-05-05 23:00",16.2871022349025,"Approved","OW479"
"2023-05-06 00:00",16.2851055634807,"Approved","OW479"
"2023-05-06 01:00",16.284108892059,"Approved","OW479"
"2023-05-06 02:00",16.2821122206372,"Approved","OW479"
"2023-05-06 03:00",16.2821155492154,"Approved","OW479"
"2023-05-06 04:00",16.2811188777936,"Approved","OW479"
"2023-05-06 05:00",16.2811222063718,"Approved","OW479"
"2023-05-06 06:00",16.2821255349501,"Approved","OW479"
"2023-05-06 07:00",16.2841288635283,"Approved","OW479"
"2023-05-06 08:00",16.2851321921065,"Approved","OW479"
"2023-05-06 09:00",16.2861355206847,"Approved","OW479"
"2023-05-06 10:00",16.286138849263,"Approved","OW479"
"2023-05-06 11:00",16.2861421778412,"Approved","OW479"
"2023-05-06 12:00",16.2841455064194,"Approved","OW479"
"2023-05-06 13:00",16.2831488349976,"Approved","OW479"
"2023-05-06 14:00",16.2821521635758,"Approved","OW479"
"2023-05-06 15:00",16.2841554921541,"Approved","OW479"
"2023-05-06 16:00",16.2851588207323,"Approved","OW479"
"2023-05-06 17:00",16.2861621493105,"Approved","OW479"
"2023-05-06 18:00",16.2901654778887,"Approved","OW479"
"2023-05-06 19:00",16.295168806467,"Approved","OW479"
"2023-05-06 20:00",16.2971721350452,"Approved","OW479"
"2023-05-06 21:00",16.2981754636234,"Approved","OW479"
"2023-05-06 22:00",16.2981787922016,"Approved","OW479"
"2023-05-06 23:00",16.2981821207798,"Approved","OW479"
"2023-05-07 00:00",16.2961854493581,"Approved","OW479"
"2023-05-07 01:00",16.2941887779363,"Approved","OW479"
"2023-05-07 02:00",16.2921921065145,"Approved","OW479"
"2023-05-07 03:00",16.2901954350927,"Approved","OW479"
"2023-05-07 04:00",16.2871987636709,"Approved","OW479"
"2023-05-07 05:00",16.2872020922492,"Approved","OW479"
"2023-05-07 06:00",16.2872054208274,"Approved","OW479"
"2023-05-07 07:00",16.2872087494056,"Approved","OW479"
"2023-05-07 08:00",16.2892120779838,"Approved","OW479"
"2023-05-07 09:00",16.2902154065621,"Approved","OW479"
"2023-05-07 10:00",16.2912187351403,"Approved","OW479"
"2023-05-07 11:00",16.2912220637185,"Approved","OW479"
"2023-05-07 12:00",16.2912253922967,"Approved","OW479"
"2023-05-07 13:00",16.2912287208749,"Approved","OW479"
"2023-05-07 14:00",16.2922320494532,"Approved","OW479"
"2023-05-07 15:00",16.2932353780314,"Approved","OW479"
"2023-05-07 16:00",16.2952387066096,"Approved","OW479"
"2023-05-07 17:00",16.2982420351878,"Approved","OW479"
"2023-05-07 18:00",16.301245363766,"Approved","OW479"
"2023-05-07 19:00",16.3042486923443,"Approved","OW479"